1495638001.01,18673,16.56,73512.0,2.01,-0.93,-0.93,0,*75
1495638002.19,18674,16.56,73508.5,2.03,-0.69,-0.65,0,*7C
1495638003.4,18675,16.56,73506.8,2.01,-0.81,-0.69,0,*75
1495638004.65,18676,16.56,73506.0,2.01,-0.89,-0.89,0,*70
1495638005.88,18677,16.56,73504.3,2.03,-0.89,-0.89,0,*73
1495638007.12,18678,16.56,73510.8,2.01,-1.79,-1.87,0,*7F
1495638008.34,18679,16.56,73508.8,1.99,-1.29,-1.39,0,*7C
1495638009.58,18680,16.56,73508.0,1.97,-1.79,-1.91,0,*73
1495638010.77,18681,16.56,73506.0,1.99,-1.63,-1.75,0,*7D
1495638011.98,18682,16.56,73502.8,1.97,-0.73,-0.73,0,*77
1495638013.18,18683,16.56,73500.8,1.97,-0.69,-0.69,0,*76
1495638014.37,18684,16.56,73504.8,1.95,-2.27,-2.35,0,*70
1495638015.56,18685,16.56,73506.5,1.95,-2.15,-2.23,0,*77
1495638016.77,18686,16.56,73504.3,1.93,-2.27,-2.23,0,*73
1495638018.02,18687,16.56,73504.3,1.91,-1.87,-1.91,0,*73
1495638019.26,18688,16.56,73504.3,1.91,-1.87,-1.87,0,*7B
1495638020.47,18689,16.56,73502.3,1.89,-1.51,-1.51,0,*73
1495638021.68,18690,16.56,73496.0,1.89,-0.81,-0.69,0,*7D
1495638022.87,18691,16.56,73498.0,1.91,0.05,0.21,0,*45
1495638024.06,18692,16.56,73498.3,1.91,-0.15,-0.15,0,*70
1495638025.27,18693,16.56,73498.5,1.89,-0.19,-0.15,0,*74
1495638026.51,18694,16.56,73500.0,1.93,0.13,0.25,0,*71
1495638027.75,18695,16.56,73500.8,1.93,0.47,0.47,0,*75
1495638028.99,18696,16.56,73500.0,1.93,0.21,0.25,0,*72
1495638030.2,18697,16.56,73500.8,1.93,-0.15,-0.15,0,*77
1495638031.37,18698,16.56,73496.8,1.95,-0.03,0.01,0,*51
1495638032.59,18699,16.56,73500.0,1.95,0.41,0.47,0,*79
1495638033.8,18700,16.56,73496.0,1.95,0.25,0.33,0,*79
1495638035.01,18701,16.56,73498.3,1.99,0.41,0.33,0,*76
1495638036.19,18702,16.56,73494.0,1.99,0.43,0.55,0,*77
1495638037.4,18703,16.56,73476.0,1.97,-0.11,-0.19,0,*77
1495638038.62,18704,16.56,73476.3,1.99,0.29,0.21,0,*7E
1495638039.86,18705,16.56,73488.8,2.01,0.21,0.21,0,*75
1495638041.04,18706,16.56,73500.8,1.99,-0.15,-0.19,0,*78
1495638042.21,18707,16.56,73508.5,1.99,0.05,-0.03,0,*5E
1495638043.42,18708,16.56,73496.3,2.03,0.33,0.33,0,*7A
1495638044.62,18709,16.56,73494.3,2.01,-0.07,-0.19,0,*46
1495638045.87,18710,16.56,73492.0,2.01,-1.05,-1.17,0,*72
1495638047.1,18711,16.56,73488.3,1.99,-0.93,-1.01,0,*48
1495638048.3,18712,16.56,73492.8,1.97,-0.81,-0.81,0,*7F
1495638049.54,18713,16.56,73494.0,1.99,-0.97,-1.01,0,*4E
1495638050.81,18714,16.56,73508.8,1.97,-1.05,-1.05,0,*79
1495638052.02,18715,16.56,73510.0,1.97,-0.11,-0.15,0,*7C
1495638053.25,18716,16.56,73508.0,1.97,-0.19,-0.23,0,*72
1495638054.46,18717,16.56,73508.3,1.99,0.17,0.21,0,*71
1495638055.63,18718,16.56,73506.5,1.99,-0.03,-0.03,0,*7B
1495638056.81,18719,16.56,73502.5,1.99,-0.53,-0.57,0,*7E
1495638058.0,18720,16.56,73496.3,1.99,-0.19,-0.15,0,*7C
1495638059.16,18721,16.56,73490.0,1.99,0.43,0.43,0,*71
1495638060.38,18722,16.56,73488.0,1.99,0.55,0.55,0,*72
1495638061.62,18723,16.56,73488.0,2.01,0.71,0.71,0,*71
1495638062.84,18724,16.56,73492.0,2.03,0.59,0.59,0,*74
1495638064.06,18725,16.56,73496.0,2.03,0.13,0.21,0,*74
1495638065.22,18726,16.56,73492.5,2.03,0.01,0.09,0,*7E
1495638066.43,18727,16.56,73492.5,2.03,0.37,0.25,0,*74
1495638067.61,18728,16.56,73500.5,2.03,-0.03,-0.03,0,*78
1495638068.79,18729,16.56,73504.5,2.03,-0.03,-0.03,0,*79
1495638070.0,18730,16.56,73502.8,2.03,0.33,0.25,0,*76
1495638071.21,18731,16.56,73508.8,2.03,0.37,0.37,0,*70
1495638072.45,18732,16.56,73508.8,2.05,0.13,0.13,0,*75
1495638073.69,18733,16.56,73510.0,2.05,0.25,0.37,0,*77
1495638074.9,18734,16.56,73510.5,2.07,0.67,0.55,0,*70
1495638076.11,18735,16.56,73510.8,2.05,0.43,0.33,0,*75
1495638077.32,18736,16.56,73512.8,2.07,0.37,0.29,0,*7C
1495638078.53,18737,16.56,73514.5,2.07,0.75,0.75,0,*72
1495638079.73,18738,16.56,73514.0,2.07,0.17,0.13,0,*79
1495638080.9,18739,16.56,73514.8,2.11,0.05,0.09,0,*77
1495638082.08,18740,16.56,73510.8,2.07,-0.81,-0.69,0,*74
1495638083.25,18741,16.56,73508.3,2.07,-0.61,-0.61,0,*73
1495638084.42,18742,16.56,73508.3,2.07,-0.07,-0.07,0,*70
1495638085.6,18743,16.56,73508.8,2.11,-0.03,-0.03,0,*76
1495638086.78,18744,16.56,73508.5,2.07,-0.37,-0.49,0,*7F
1495638088.0,18745,16.56,73506.0,2.05,-0.41,-0.41,0,*75
1495638089.18,18746,16.56,73510.0,2.07,-0.11,-0.11,0,*74
1495638090.39,18747,16.56,73516.3,2.05,-0.15,-0.15,0,*77
1495638091.57,18748,16.56,73510.5,2.07,-0.61,-0.69,0,*72
1495638092.84,18749,16.56,73500.8,2.05,-1.39,-1.39,0,*79
1495638094.04,18750,16.56,73502.8,2.05,-0.65,-0.61,0,*75
1495638095.25,18751,16.56,73502.0,2.05,-0.61,-0.49,0,*7A
1495638096.49,18752,16.56,73502.0,2.05,0.21,0.25,0,*77
1495638097.73,18753,16.56,73508.8,2.05,0.21,0.13,0,*73
1495638098.97,18754,16.56,73518.3,2.05,0.13,0.21,0,*74
1495638100.18,18755,16.56,73514.8,2.05,-0.03,-0.11,0,*47
1495638101.35,18756,16.56,73512.3,2.07,-0.53,-0.61,0,*74
1495638102.57,18757,16.56,73508.3,2.05,-1.17,-1.17,0,*76
1495638103.84,18758,16.56,73514.8,2.05,-1.09,-1.01,0,*71
1495638105.08,18759,16.56,73504.5,2.05,-1.13,-1.25,0,*7D
1495638106.29,18760,16.56,73498.3,2.01,-1.21,-1.29,0,*7E
1495638107.51,18761,16.56,73498.0,2.01,-1.29,-1.33,0,*7C
1495638108.77,18762,16.56,73498.5,2.01,-1.05,-0.89,0,*41
1495638109.96,18763,16.56,73498.3,1.99,-0.41,-0.41,0,*77
1495638111.13,18764,16.56,73506.0,1.99,0.05,0.05,0,*70
1495638112.37,18765,16.56,73504.0,2.01,0.21,0.21,0,*73
1495638113.56,18766,16.56,73504.0,2.01,-0.07,0.05,0,*5F
1495638114.78,18767,16.56,73504.3,2.01,0.05,0.17,0,*42
1495638116.0,18768,16.56,73506.8,2.03,0.47,0.51,0,*7B
1495638117.22,18769,16.56,73506.0,2.03,0.21,0.21,0,*7D
1495638118.46,18770,16.56,73500.5,2.05,-0.27,-0.15,0,*72
1495638119.68,18771,16.56,73496.8,2.05,-0.29,-0.27,0,*7C
1495638120.87,18772,16.56,73492.0,2.03,-0.41,-0.53,0,*74
1495638122.06,18773,16.56,73492.0,2.03,-0.41,-0.37,0,*77
1495638123.23,18774,16.56,73494.3,2.03,-0.03,0.09,0,*56
1495638124.4,18775,16.56,73506.8,2.03,0.43,0.43,0,*70
1495638125.61,18776,16.56,73508.0,2.03,0.51,0.63,0,*72
1495638126.8,18777,16.56,73504.3,2.03,-0.37,-0.49,0,*7B
1495638127.99,18778,16.56,73496.3,2.03,-0.15,-0.15,0,*7D
1495638129.22,18779,16.56,73496.0,2.03,-0.23,-0.23,0,*7C
1495638130.38,18780,16.56,73498.5,2.03,0.01,0.01,0,*7A
1495638131.62,18781,16.56,73492.8,2.05,0.25,0.21,0,*79
1495638132.82,18782,16.56,73496.8,2.05,-0.29,-0.29,0,*7E
1495638134.03,18783,16.56,73496.3,2.05,-0.15,-0.15,0,*7F
1495638135.27,18784,16.56,73502.5,2.05,0.21,0.25,0,*7C
1495638136.48,18785,16.56,73506.3,2.05,-0.29,-0.37,0,*76
1495638137.72,18786,16.56,73498.3,2.05,-0.23,-0.15,0,*7F
1495638138.92,18787,16.56,73498.8,2.05,-0.03,-0.03,0,*7B
1495638140.13,18788,16.56,73498.8,2.07,0.51,0.63,0,*77
1495638141.34,18789,16.56,73500.3,2.07,0.29,0.37,0,*78
1495638142.53,18790,16.56,73500.3,2.05,0.01,-0.03,0,*52
1495638143.74,18791,16.56,73496.5,2.05,-0.77,-0.77,0,*7C
1495638144.95,18792,16.56,73498.0,2.05,-0.15,-0.15,0,*7F
1495638146.14,18793,16.56,73498.8,2.05,0.09,0.09,0,*7E
1495638147.36,18794,16.56,73498.0,2.05,-0.11,-0.15,0,*7D
1495638148.57,18795,16.56,73496.0,2.05,-0.15,-0.11,0,*7C
1495638149.78,18796,16.56,73494.3,2.07,0.47,0.41,0,*7F
1495638151.02,18797,16.56,73496.8,2.05,0.25,0.25,0,*7A
1495638152.2,18798,16.56,73498.8,2.05,0.01,0.09,0,*7D
1495638153.41,18799,16.56,73498.0,2.07,0.29,0.25,0,*7A
1495638154.62,18800,16.56,73498.5,2.05,-0.03,-0.15,0,*4C
1495638155.85,18801,16.56,73500.5,2.05,-0.73,-0.85,0,*73
1495638157.04,18802,16.56,73504.0,2.07,-0.53,-0.37,0,*79
1495638158.27,18803,16.56,73504.0,2.05,-0.27,-0.37,0,*79
1495638159.48,18804,16.56,73508.3,2.05,-0.49,-0.41,0,*77
1495638160.71,18805,16.56,73506.3,2.03,-0.85,-0.97,0,*7B
1495638161.9,18806,16.56,73508.0,2.03,-0.77,-0.77,0,*7B
1495638163.08,18807,16.56,73506.8,2.03,0.43,0.33,0,*7D
1495638164.3,18808,16.56,73502.3,2.03,0.51,0.47,0,*72
1495638165.49,18809,16.56,73502.5,2.05,0.09,0.01,0,*7A
1495638166.73,18810,16.56,73498.0,2.05,0.25,0.33,0,*7D
1495638167.95,18811,16.56,73498.8,2.07,0.87,0.87,0,*79
1495638169.16,18812,16.56,73502.8,2.07,0.75,0.75,0,*7A
1495638170.37,18813,16.56,73502.5,2.07,0.29,0.25,0,*77
1495638171.59,18814,16.56,73512.8,2.07,0.79,0.79,0,*7C
1495638172.8,18815,16.56,73506.8,2.07,0.37,0.29,0,*72
1495638174.04,18816,16.56,73500.5,2.07,-1.05,-1.09,0,*72
1495638175.22,18817,16.56,73500.0,2.07,-0.11,-0.11,0,*7F
1495638176.43,18818,16.56,73496.5,2.07,0.63,0.63,0,*70
1495638177.64,18819,16.56,73500.3,2.07,0.63,0.67,0,*75
1495638178.86,18820,16.56,73506.0,2.11,0.51,0.55,0,*78
1495638180.04,18821,16.56,73502.0,2.11,-0.03,-0.07,0,*79
1495638181.23,18822,16.56,73498.5,2.11,-0.19,-0.15,0,*72
1495638182.4,18823,16.56,73496.8,2.11,-0.03,0.09,0,*58
1495638183.58,18824,16.56,73500.3,2.11,-0.03,-0.07,0,*7C
1495638184.79,18825,16.56,73508.5,2.11,0.59,0.67,0,*74
1495638186.01,18826,16.56,73510.5,2.11,0.83,0.79,0,*7F
1495638187.25,18827,16.56,73504.8,2.13,0.17,0.17,0,*79
1495638188.46,18828,16.56,73500.3,2.11,-1.43,-1.55,0,*73
1495638189.64,18829,16.56,73498.5,2.07,-0.57,-0.57,0,*72
1495638190.85,18830,16.56,73498.3,2.05,-0.37,-0.29,0,*77
1495638192.02,18831,16.56,73500.0,2.07,-0.61,-0.57,0,*7E
1495638193.21,18832,16.56,73500.5,2.05,-0.03,0.01,0,*55
1495638194.43,18833,16.56,73502.5,2.05,-0.41,-0.37,0,*7A
1495638195.62,18834,16.56,73504.5,2.05,-0.03,0.01,0,*53
1495638196.84,18835,16.56,73500.8,2.07,0.55,0.63,0,*7A
1495638198.08,18836,16.56,73498.0,2.05,0.63,0.63,0,*7E
1495638199.24,18837,16.56,73492.0,2.07,-0.07,0.01,0,*56
1495638200.45,18838,16.56,73492.3,2.07,0.17,0.29,0,*7F
1495638201.66,18839,16.56,73500.5,2.07,0.41,0.51,0,*72
1495638202.84,18840,16.56,73504.3,2.11,-0.65,-0.65,0,*7A
1495638204.01,18841,16.56,73500.5,2.11,0.05,0.05,0,*7B
1495638205.24,18842,16.56,73498.0,2.13,0.33,0.41,0,*7F
1495638206.44,18843,16.56,73498.0,2.11,-0.53,-0.41,0,*7A
1495638207.63,18844,16.56,73498.3,2.11,-0.19,-0.15,0,*72
1495638208.8,18845,16.56,73498.0,2.11,-0.33,-0.29,0,*74
1495638209.99,18846,16.56,73492.8,2.11,0.09,0.17,0,*43
1495638211.16,18847,16.56,73502.5,2.11,0.05,0.05,0,*7D
1495638212.34,18848,16.56,73500.0,2.11,-0.19,-0.07,0,*4D
1495638213.52,18849,16.56,73500.8,2.11,-0.03,0.05,0,*58
1495638214.69,18850,16.56,73502.3,2.07,-0.11,0.01,0,*60
1495638215.86,18851,16.56,73500.8,2.07,-0.07,-0.07,0,*7D
1495638217.06,18852,16.56,73502.5,2.07,-0.27,-0.19,0,*73
1495638218.23,18853,16.56,73502.3,2.11,0.09,0.09,0,*78
1495638219.42,18854,16.56,73498.8,2.11,-0.77,-0.69,0,*70
1495638220.6,18855,16.56,73494.0,2.07,0.05,0.17,0,*4A
1495638221.82,18856,16.56,73496.5,2.07,0.47,0.55,0,*79
1495638223.0,18857,16.56,73498.8,2.07,-0.19,-0.19,0,*7B
1495638224.19,18858,16.56,73500.3,2.11,-0.19,-0.15,0,*7F
1495638225.4,18859,16.56,73500.8,2.11,0.17,0.29,0,*7F
1495638226.59,18860,16.56,73502.8,2.11,-0.77,-0.57,0,*7A
1495638227.77,18861,16.56,73502.0,2.11,-0.53,-0.45,0,*7E
1495638228.96,18862,16.56,73500.5,2.07,0.05,0.17,0,*4E
1495638230.17,18863,16.56,73500.8,2.07,0.25,0.25,0,*7C
1495638231.37,18864,16.56,73502.3,2.07,0.13,0.17,0,*7F
1495638232.56,18865,16.56,73498.0,2.07,-0.69,-0.73,0,*71
1495638233.73,18866,16.56,73488.5,2.07,-0.49,-0.45,0,*75
1495638234.9,18867,16.56,73494.5,2.11,0.05,0.05,0,*7F
1495638236.13,18868,16.56,73490.5,2.05,-0.77,-0.85,0,*78
1495638237.38,18869,16.56,73498.5,2.05,-0.89,-0.85,0,*78
1495638238.59,18870,16.56,73502.0,2.03,-0.23,-0.15,0,*7F
1495638239.81,18871,16.56,73502.3,2.05,-0.15,-0.11,0,*79
1495638241.04,18872,16.56,73500.8,2.05,-0.85,-0.77,0,*73
1495638242.26,18873,16.56,73496.8,2.03,-1.09,-1.17,0,*76
1495638243.5,18874,16.56,73496.8,2.01,-1.33,-1.43,0,*7B
1495638244.72,18875,16.56,73498.0,2.01,-1.29,-1.33,0,*76
1495638245.92,18876,16.56,73500.0,2.01,-0.41,-0.29,0,*70
1495638247.13,18877,16.56,73492.8,2.01,-0.19,-0.19,0,*7F
1495638248.35,18878,16.56,73492.0,2.03,0.21,0.25,0,*76
1495638249.54,18879,16.56,73494.0,2.01,0.05,0.09,0,*7D
1495638250.77,18880,16.56,73502.5,2.03,-0.27,-0.27,0,*75
1495638251.98,18881,16.56,73498.0,2.01,-0.77,-0.77,0,*76
1495638253.23,18882,16.56,73494.3,2.01,-0.93,-0.93,0,*75
1495638254.46,18883,16.56,73492.3,1.99,-1.01,-0.93,0,*4C
1495638255.67,18884,16.56,73498.0,1.99,0.21,0.29,0,*79
1495638256.88,18885,16.56,73498.8,1.99,-0.27,-0.15,0,*71
1495638258.1,18886,16.56,73492.0,2.01,-0.41,-0.41,0,*71
1495638259.34,18887,16.56,73498.3,2.01,0.21,0.29,0,*78
1495638260.58,18888,16.56,73494.5,2.01,0.59,0.67,0,*72
1495638261.75,18889,16.56,73494.3,2.03,-0.03,0.09,0,*5B
1495638262.96,18890,16.56,73496.5,2.03,0.25,0.25,0,*74
1495638264.13,18891,16.56,73498.5,2.03,0.43,0.43,0,*75
1495638265.33,18892,16.56,73500.8,2.01,-0.65,-0.65,0,*74
1495638266.53,18893,16.56,73500.0,2.01,-0.29,-0.33,0,*7E
1495638267.75,18894,16.56,73492.8,2.01,0.09,0.21,0,*48
1495638268.94,18895,16.56,73492.5,2.03,0.43,0.51,0,*72
1495638270.16,18896,16.56,73494.5,2.03,0.59,0.59,0,*72
1495638271.41,18897,16.56,73494.5,2.05,0.47,0.47,0,*75
1495638272.61,18898,16.56,73496.0,2.05,-0.37,-0.29,0,*75
1495638273.82,18899,16.56,73498.3,2.07,-0.27,-0.33,0,*7C
1495638275.06,18900,16.56,73494.8,2.05,0.37,0.37,0,*7A
1495638276.3,18901,16.56,73502.3,2.03,-1.01,-1.01,0,*7D
1495638277.54,18902,16.56,73500.8,2.05,-1.75,-1.83,0,*71
1495638278.81,18903,16.56,73492.8,2.01,-2.07,-2.07,0,*7D
1495638280.02,18904,16.56,73492.8,1.97,-2.35,-2.43,0,*77
1495638281.25,18905,16.56,73496.5,1.97,-1.21,-1.09,0,*7D
1495638282.47,18906,16.56,73496.0,1.93,-0.49,-0.41,0,*78
1495638283.7,18907,16.56,73494.8,1.95,-1.09,-1.09,0,*77
1495638284.91,18908,16.56,73496.5,1.93,-1.59,-1.59,0,*7E
1495638286.15,18909,16.56,73494.8,1.93,-2.35,-2.47,0,*7A
1495638287.39,18910,16.56,73500.0,1.91,-2.67,-2.75,0,*76
1495638288.61,18911,16.56,73500.5,1.89,-1.75,-1.79,0,*71
1495638289.85,18912,16.56,73506.5,1.89,-0.89,-0.93,0,*75
1495638291.06,18913,16.56,73506.8,1.89,-0.53,-0.57,0,*7B
1495638292.3,18914,16.56,73506.3,1.89,-1.29,-1.39,0,*79
1495638293.51,18915,16.56,73500.5,1.89,-0.81,-0.81,0,*79
1495638294.73,18916,16.5,73492.0,1.83,-0.23,-0.23,0,*70
1495638295.97,18917,16.56,73494.0,1.85,0.17,0.29,0,*7A
1495638297.16,18918,16.56,73492.3,1.89,-0.07,-0.03,0,*70
1495638298.36,18919,16.56,73488.8,1.89,-0.07,-0.07,0,*75
1495638299.59,18920,16.56,73490.3,1.89,0.33,0.33,0,*7F
1495638300.81,18921,16.56,73492.3,1.91,0.59,0.59,0,*77
1495638301.99,18922,16.56,73494.8,1.91,-0.53,-0.57,0,*70
1495638303.18,18923,16.56,73490.5,1.91,0.17,0.09,0,*4A
1495638304.4,18924,16.56,73492.0,1.91,0.21,0.29,0,*7A
1495638305.64,18925,16.56,73492.3,1.93,0.47,0.47,0,*71
1495638306.86,18926,16.5,73492.3,1.95,0.59,0.63,0,*7D
1495638308.1,18927,16.5,73490.3,1.93,0.25,0.21,0,*77
1495638309.31,18928,16.56,73488.3,1.95,-0.27,-0.33,0,*7F
1495638310.55,18929,16.56,73490.5,1.93,0.21,0.21,0,*7D
1495638311.77,18930,16.56,73488.8,1.95,0.59,0.59,0,*73
1495638312.99,18931,16.56,73492.0,1.95,0.51,0.51,0,*72
1495638314.21,18932,16.56,73492.8,1.95,0.83,0.83,0,*71
1495638315.44,18933,16.56,73498.5,1.97,0.17,0.17,0,*72
1495638316.65,18934,16.56,73496.5,1.97,0.51,0.43,0,*76
1495638317.9,18935,16.56,73498.3,1.97,0.55,0.51,0,*70
1495638319.13,18936,16.56,73500.8,1.97,0.67,0.67,0,*77
1495638320.34,18937,16.56,73498.0,1.99,0.29,0.17,0,*75
1495638321.57,18938,16.56,73498.3,1.97,0.37,0.25,0,*7A
1495638322.8,18939,16.56,73500.8,1.97,0.17,0.13,0,*7C
1495638323.99,18940,16.56,73502.0,1.99,0.21,0.09,0,*42
1495638325.18,18941,16.56,73496.8,1.99,0.17,0.09,0,*46
1495638326.42,18942,16.56,73492.3,1.99,-1.01,-1.05,0,*7E
1495638327.67,18943,16.56,73492.5,1.97,-1.09,-0.85,0,*40
1495638328.91,18944,16.56,73494.3,1.97,0.29,0.37,0,*7D
1495638330.1,18945,16.56,73496.8,1.99,0.21,0.09,0,*47
1495638331.28,18946,16.56,73492.5,1.99,-0.65,-0.69,0,*72
1495638332.51,18947,16.56,73492.5,1.97,-0.23,-0.19,0,*78
1495638333.75,18948,16.56,73490.8,1.97,-0.23,-0.23,0,*7E
1495638334.93,18949,16.56,73490.3,1.97,0.01,0.01,0,*7F
1495638336.15,18950,16.56,73490.3,1.99,0.21,0.21,0,*79
1495638337.38,18951,16.56,73492.5,1.97,0.37,0.29,0,*79
1495638338.62,18952,16.56,73498.8,2.01,0.33,0.21,0,*7A
1495638339.79,18953,16.56,73506.5,1.99,0.09,0.09,0,*7A
1495638340.97,18954,16.56,73506.3,1.99,0.17,0.09,0,*42
1495638342.17,18955,16.56,73500.0,1.97,-0.11,0.01,0,*6E
1495638343.36,18956,16.56,73494.5,1.99,0.09,0.21,0,*45
1495638344.6,18957,16.56,73498.0,2.01,0.41,0.41,0,*7C
1495638345.82,18958,16.56,73496.8,1.99,0.21,0.21,0,*71
1495638347.0,18959,16.56,73498.3,1.99,-0.53,-0.57,0,*74
1495638348.24,18960,16.56,73496.0,1.99,-1.05,-1.05,0,*7A
1495638349.44,18961,16.56,73496.3,1.99,-1.17,-1.21,0,*7E
1495638350.68,18962,16.56,73494.5,1.97,-1.33,-1.35,0,*70
1495638351.92,18963,16.56,73492.3,1.95,-1.09,-1.09,0,*75
1495638353.15,18964,16.5,73486.8,1.95,-1.01,-0.89,0,*43
1495638354.38,18965,16.56,73488.3,1.93,-0.85,-0.77,0,*78
1495638355.64,18966,16.5,73480.5,1.93,-0.85,-0.85,0,*76
1495638356.84,18967,16.56,73492.3,1.93,-0.33,-0.33,0,*77
1495638358.06,18968,16.56,73502.0,1.93,-0.41,-0.41,0,*78
1495638359.26,18969,16.56,73502.5,1.93,-0.61,-0.53,0,*78
1495638360.47,18970,16.56,73500.3,1.93,-0.49,-0.49,0,*71
1495638361.72,18971,16.56,73504.0,1.93,-0.27,-0.27,0,*70
1495638362.9,18972,16.56,73506.3,1.91,-0.03,-0.03,0,*71
1495638364.15,18973,16.56,73504.8,1.93,-0.23,-0.23,0,*72
1495638365.34,18974,16.56,73506.5,1.95,-0.15,-0.11,0,*77
1495638366.57,18975,16.56,73504.5,1.93,0.21,0.25,0,*70
1495638367.78,18976,16.56,73504.0,1.95,0.13,0.13,0,*71
1495638368.97,18977,16.5,73500.0,1.95,-0.37,-0.33,0,*74
1495638370.23,18978,16.56,73500.5,1.93,-1.01,-1.01,0,*79
1495638371.49,18979,16.5,73500.8,1.93,-0.97,-0.89,0,*77
1495638372.76,18980,16.56,73506.3,1.93,-1.47,-1.47,0,*7E
1495638374.02,18981,16.5,73500.8,1.93,-1.01,-1.09,0,*77
1495638375.21,18982,16.56,73500.3,1.91,-1.25,-1.17,0,*7F
1495638376.48,18983,16.56,73502.5,1.89,-1.87,-1.87,0,*76
1495638377.68,18984,16.5,73500.8,1.89,-1.51,-1.55,0,*75
1495638378.87,18985,16.5,73498.3,1.83,-2.87,-2.95,0,*79
1495638380.14,18986,16.5,73492.5,1.81,-1.87,-1.87,0,*7B
1495638381.4,18987,16.56,73496.0,1.81,-2.47,-2.59,0,*75
1495638382.64,18988,16.5,73486.0,1.79,-3.43,-3.55,0,*75
1495638383.91,18989,16.56,73494.3,1.77,-2.75,-2.67,0,*7E
1495638385.13,18990,16.56,73488.3,1.75,-2.07,-2.19,0,*78
1495638386.35,18991,16.5,73490.3,1.73,-1.29,-1.17,0,*7D
1495638387.62,18992,16.5,73490.5,1.73,-1.05,-1.05,0,*73
1495638388.83,18993,16.56,73494.3,1.71,-0.73,-0.73,0,*70
1495638390.04,18994,16.56,73492.0,1.71,-0.57,-0.49,0,*78
1495638391.25,18995,16.56,73494.8,1.73,-0.73,-0.69,0,*7F
1495638392.46,18996,16.56,73496.8,1.73,-2.31,-2.31,0,*77
1495638393.67,18997,16.56,73494.5,1.71,-3.15,-3.23,0,*71
1495638394.87,18998,16.5,73490.5,1.69,-2.95,-2.95,0,*72
1495638396.08,18999,16.56,73494.0,1.67,-2.31,-2.39,0,*75
1495638397.29,19000,16.56,73490.5,1.67,-2.27,-2.27,0,*75
1495638398.5,19001,16.5,73486.5,1.67,-1.75,-1.75,0,*74
1495638399.74,19002,16.5,73492.5,1.61,-1.05,-0.97,0,*4B
1495638400.91,19003,16.56,73488.3,1.65,-0.69,-0.65,0,*78
1495638402.11,19004,16.56,73490.3,1.65,-0.37,-0.27,0,*72
1495638403.32,19005,16.56,73500.3,1.65,0.21,0.25,0,*76
1495638404.53,19006,16.5,73504.3,1.67,-0.41,-0.41,0,*73
1495638405.7,19007,16.56,73502.0,1.69,-0.49,-0.61,0,*76
1495638406.93,19008,16.56,73502.5,1.69,-0.85,-1.09,0,*46
1495638408.18,19009,16.56,73504.8,1.67,-0.89,-1.01,0,*4D
1495638409.41,19010,16.5,73506.0,1.67,-0.77,-0.89,0,*75
1495638410.65,19011,16.5,73496.0,1.69,-1.87,-1.87,0,*7B
1495638411.91,19012,16.56,73494.0,1.67,-1.01,-1.01,0,*76
1495638413.14,19013,16.56,73502.0,1.67,-0.27,-0.19,0,*7A
1495638414.36,19014,16.5,73496.3,1.67,-0.27,-0.19,0,*7D
1495638415.6,19015,16.5,73498.3,1.67,0.25,0.51,0,*72
1495638416.82,19016,16.56,73506.0,1.69,0.71,0.75,0,*78
1495638418.02,19017,16.56,73500.8,1.73,0.43,0.33,0,*71
1495638419.24,19018,16.56,73500.8,1.75,-0.23,-0.11,0,*7E
1495638420.5,19019,16.56,73502.5,1.73,-1.09,-1.05,0,*74
1495638421.69,19020,16.56,73504.8,1.73,-0.07,-0.07,0,*72
1495638422.93,19021,16.5,73498.5,1.73,0.29,0.33,0,*78
1495638424.17,19022,16.56,73502.8,1.77,0.59,0.67,0,*79
1495638425.43,19023,16.56,73492.3,1.77,0.91,0.91,0,*75
1495638426.68,19024,16.5,73490.3,1.77,0.79,0.71,0,*7A
1495638427.91,19025,16.5,73494.3,1.81,0.29,0.37,0,*75
1495638429.1,19026,16.56,73496.5,1.81,0.09,0.01,0,*71
1495638430.27,19027,16.5,73502.3,1.79,-0.07,-0.07,0,*7F
1495638431.48,19028,16.5,73500.3,1.81,-0.45,-0.49,0,*7B
1495638432.72,19029,16.56,73496.5,1.81,-1.63,-1.83,0,*78
1495638433.91,19030,16.5,73486.3,1.79,-2.87,-2.87,0,*79
1495638435.1,19031,16.56,73490.5,1.75,-3.07,-3.11,0,*73
1495638436.34,19032,16.5,73488.3,1.75,-2.67,-2.71,0,*70
1495638437.55,19033,16.56,73490.5,1.71,-0.49,-0.37,0,*7B
1495638438.76,19034,16.56,73494.5,1.73,0.05,0.13,0,*40
1495638439.99,19035,16.5,73492.3,1.73,0.29,0.33,0,*7D
1495638441.19,19036,16.5,73494.5,1.75,0.91,0.97,0,*75
1495638442.42,19037,16.56,73496.5,1.77,1.41,1.43,0,*72
1495638443.67,19038,16.56,73496.3,1.81,1.37,1.43,0,*75
1495638444.91,19039,16.5,73494.3,1.81,0.71,0.63,0,*74
1495638446.15,19040,16.56,73496.5,1.81,0.59,0.71,0,*73
1495638447.35,19041,16.56,73496.3,1.85,-0.81,-0.81,0,*7C
1495638448.56,19042,16.5,73496.3,1.85,-0.73,-0.73,0,*7F
1495638449.75,19043,16.5,73500.3,1.83,-0.69,-0.69,0,*78
1495638450.95,19044,16.56,73502.3,1.83,-0.85,-0.57,0,*70
1495638452.13,19045,16.56,73496.8,1.83,-0.41,-0.29,0,*70
1495638453.31,19046,16.56,73494.8,1.83,-0.69,-0.69,0,*7D
1495638454.49,19047,16.5,73496.5,1.83,0.01,0.13,0,*4F
1495638455.7,19048,16.56,73502.8,1.83,0.13,0.13,0,*73
1495638456.93,19049,16.5,73500.3,1.83,-0.85,-0.93,0,*75
1495638458.12,19050,16.5,73502.5,1.83,-2.31,-2.35,0,*7E
1495638459.37,19051,16.5,73504.8,1.79,-2.11,-2.11,0,*7E
1495638460.61,19052,16.5,73498.0,1.79,-2.03,-2.11,0,*7E
1495638461.88,19053,16.5,73484.8,1.77,-1.13,-1.05,0,*75
1495638463.14,19054,16.5,73478.5,1.77,-0.27,-0.27,0,*75
1495638464.36,19055,16.56,73478.5,1.77,-0.03,0.17,0,*6C
1495638465.6,19056,16.5,73476.0,1.77,-0.37,-0.27,0,*76
1495638466.79,19057,16.5,73472.3,1.79,0.37,0.43,0,*7B
1495638468.03,19058,16.5,73486.5,1.81,0.71,0.75,0,*74
1495638469.23,19059,16.5,73492.0,1.81,1.05,1.05,0,*71
1495638470.49,19060,16.5,73488.5,1.85,1.17,1.17,0,*7F
1495638471.68,19061,16.5,73484.8,1.85,-0.07,-0.07,0,*7E
1495638472.92,19062,16.5,73490.0,1.89,0.47,0.55,0,*72
1495638474.18,19063,16.56,73492.3,1.89,1.17,1.17,0,*70
1495638475.4,19064,16.56,73492.0,1.91,0.95,0.91,0,*7A
1495638476.6,19065,16.5,73496.5,1.91,0.95,1.01,0,*43
1495638477.84,19066,16.5,73494.5,1.95,1.21,1.21,0,*78
1495638479.06,19067,16.5,73490.5,1.95,0.47,0.47,0,*79
1495638480.28,19068,16.5,73498.5,1.95,0.71,0.83,0,*7B
1495638481.5,19069,16.5,73492.5,1.95,0.51,0.51,0,*77
1495638482.75,19070,16.56,73496.0,1.97,1.09,1.09,0,*7D
1495638483.96,19071,16.5,73496.3,1.99,0.67,0.71,0,*75
1495638485.22,19072,16.5,73502.3,2.01,1.17,1.17,0,*73
1495638486.44,19073,16.5,73498.5,2.03,0.95,0.83,0,*77
1495638487.66,19074,16.5,73500.5,2.03,0.95,1.17,0,*4C
1495638488.9,19075,16.5,73504.5,2.03,1.21,1.29,0,*7E
1495638490.14,19076,16.5,73504.3,2.05,1.09,1.05,0,*7F
1495638491.3,19077,16.56,73506.3,2.07,1.05,0.97,0,*4A
1495638492.51,19078,16.5,73504.0,2.07,0.67,0.75,0,*7C
1495638493.68,19079,16.5,73502.0,2.07,-0.61,-0.69,0,*76
1495638494.87,19080,16.5,73496.5,2.07,-1.67,-1.71,0,*7F
1495638496.14,19081,16.56,73496.3,2.05,-2.67,-2.75,0,*78
1495638497.36,19082,16.56,73494.8,2.01,-2.31,-2.43,0,*79
1495638498.6,19083,16.5,73490.0,2.01,-1.43,-1.51,0,*7E
1495638499.84,19084,16.5,73500.3,1.97,0.51,0.55,0,*72
1495638501.0,19085,16.5,73498.8,1.99,0.09,0.05,0,*75
1495638502.18,19086,16.5,73494.8,1.99,-0.45,-0.57,0,*79
1495638503.4,19087,16.5,73492.0,2.01,-1.29,-1.33,0,*72
1495638504.64,19088,16.5,73490.5,1.97,-1.25,-1.35,0,*7B
1495638505.85,19089,16.56,73484.5,1.97,-2.19,-2.19,0,*7B
1495638507.12,19090,16.5,73484.5,1.93,-1.47,-1.47,0,*77
1495638508.37,19091,16.5,73494.3,1.93,-0.89,-0.85,0,*7A
1495638509.58,19092,16.5,73492.0,1.93,-0.33,-0.37,0,*71
1495638510.78,19093,16.56,73492.8,1.93,-0.33,-0.33,0,*74
1495638511.97,19094,16.5,73488.3,1.93,0.09,0.09,0,*73
1495638513.15,19095,16.5,73490.3,1.95,-0.65,-0.61,0,*70
1495638514.4,19096,16.56,73486.3,1.95,-1.99,-2.11,0,*74
1495638515.61,19097,16.5,73480.8,1.91,-1.79,-1.87,0,*73
1495638516.85,19098,16.5,73486.0,1.91,-1.01,-0.89,0,*4C
1495638518.04,19099,16.5,73486.3,1.91,0.37,0.43,0,*7F
1495638519.28,19100,16.5,73486.0,1.93,0.75,0.83,0,*76
1495638520.52,19101,16.5,73490.3,1.93,0.25,0.21,0,*7A